[[{"header":{"parameterUnit":"m.s-1","parameterCategory":1,"la1":30.2992,"la2":30.254,"lo1":-89.0895,"lo2":-89.0443,"dy":0.0025,"dx":0.0025,"nx":19,"ny":19,"refTime":"2026-03-27T09:00:00:Z","depth":0,"parameterNumber":2,"parameterNumberName":"U-component_of_WINDS"},"data":[0,0,0,-6.6997,-6.7003,-6.7268,-6.7269,-6.7623,-6.7626,0,0,0,0,0,0,0,0,0,0,0,-6.6929,-6.6931,-6.6996,-6.7003,-6.7268,-6.7269,-6.7622,-6.7626,0,0,0,0,0,0,0,0,0,0,0,-6.6927,-6.6931,-6.6934,-6.7004,-6.7268,-6.7269,-6.7621,-6.7416,0,0,0,0,0,0,0,0,0,0,-6.7155,-6.7103,-6.693,-6.6934,-6.7006,-6.7268,-6.7269,-6.7405,-6.7429,-6.7509,0,-6.7586,0,-6.7612,-6.7651,-6.7652,0,0,0,-6.6995,-6.7084,-6.7146,-6.6935,-6.7008,-6.7267,-6.7146,-6.7418,-6.7444,-6.754,-6.7591,-6.7603,-6.7618,-6.7653,-6.7655,-6.815,-6.8153,0,0,-6.698,-6.6982,-6.7129,-6.7164,-6.7126,-6.7138,-6.7155,-6.7434,-6.7488,-6.7592,-6.7611,-6.7623,-6.7656,-6.7659,-6.8147,-6.8151,0,0,0,-6.6944,-6.6972,-6.7027,-6.715,-6.7197,-6.7146,-6.7165,-6.7476,-6.7494,-6.7615,-6.7628,-6.7658,-6.7662,-6.8145,-6.8149,-6.828,0,0,0,-6.6934,-6.6951,-6.7021,-6.7024,-6.7192,-6.734,-6.7201,-6.7474,-6.7506,-6.7626,-6.7658,-6.7666,-6.8142,-6.8147,-6.827,-6.834,0,0,0,-6.6908,-6.6947,-6.699,-6.7024,-6.7138,-6.7335,-6.7369,-6.7481,-6.7514,-6.7652,-6.7667,-6.814,-6.8146,-6.8261,-6.8326,-6.8467,0,0,0,-6.6879,-6.7105,-6.6992,-6.7249,-6.7136,-6.7417,-6.7367,-6.7576,-6.7711,-6.766,-6.8142,-6.8148,-6.8258,-6.8317,-6.8457,-6.8582,-6.8636,0,0,-6.7164,-6.7139,-6.729,-6.7197,-6.7497,-6.7376,-6.7696,-6.7818,-6.7831,-6.8042,-6.8054,-6.8273,-6.8325,-6.8465,-6.8946,-6.8988,0,0,0,-6.738,-6.7488,-6.7568,-6.7696,-6.7796,-6.7885,-6.7958,-6.8003,-6.8183,-6.794,-6.8365,-6.8396,-6.8478,-6.8537,-6.8573,-6.8641,-6.8177,-6.8177,-6.8176,-6.7782,-6.7786,-6.8034,-6.8069,-6.8195,-6.8268,-6.8368,-6.8441,-6.8409,-6.851,-6.857,-6.8862,-6.8932,-6.8959,-6.903,-6.8642,-6.8642,-6.8643,-6.8643,-6.8195,-6.8345,-6.8298,-6.852,-6.8522,-6.8709,-6.8789,-6.8759,-6.8931,-6.8817,-6.8889,-6.8758,-6.9005,-6.9067,-6.8653,-6.8651,-6.865,-6.8649,-6.8648,-6.8453,-6.8525,-6.8578,-6.8762,-6.8904,-6.8933,-6.9099,-6.9097,-6.9096,-6.9168,-6.9228,-6.9226,-6.9219,-6.9198,-6.9199,-6.92,-6.9201,-6.9202,-6.9203,-6.8698,-6.8753,-6.8894,-6.9018,-6.9099,-6.9205,-6.9281,-6.936,-6.9446,-6.943,-6.9431,-6.9385,-6.9032,-6.8938,-6.9218,-6.9215,-6.9213,-6.9212,-6.9211,-6.9105,-6.9012,-6.923,-6.9311,-6.9455,-6.9593,-6.959,-6.975,-6.9815,-6.9897,-6.9838,-6.9579,-6.9552,-6.9523,-6.9446,-6.984,-6.984,-6.984,-6.984,-6.9318,-6.9306,-6.9526,-6.9654,-6.9781,-6.9799,-7.0042,-7.0104,-7.0153,-7.0192,-7.0137,-7.0036,-7.0008,-6.9997,-6.9958,-6.9886,-7.0383,-7.0384,-7.0384,-6.9565,-6.9565,-6.9772,-6.9819,-6.9931,-7.0027,-7.0254,-7.0402,-7.0439,-7.0406,-7.0222,-7.0199,-7.0038,-6.9986,-6.9942,-6.9882,-6.9749,0,0]},{"header":{"parameterUnit":"m.s-1","parameterCategory":1,"la1":30.2992,"la2":30.254,"lo1":-89.0895,"lo2":-89.0443,"dy":0.0025,"dx":0.0025,"nx":19,"ny":19,"refTime":"2026-03-27T09:00:00:Z","depth":0,"parameterNumber":3,"parameterNumberName":"V-component_of_WINDS"},"data":[0,0,0,1.7524,1.7526,1.7608,1.7608,1.772,1.7721,0,0,0,0,0,0,0,0,0,0,0,1.7505,1.7506,1.7524,1.7526,1.7608,1.7608,1.772,1.7721,0,0,0,0,0,0,0,0,0,0,0,1.7504,1.7506,1.7507,1.7527,1.7608,1.7608,1.7719,1.7655,0,0,0,0,0,0,0,0,0,0,1.7574,1.7561,1.7505,1.7507,1.7527,1.7608,1.7608,1.7652,1.7659,1.7686,0,1.7712,0,1.7718,1.7729,1.7729,0,0,0,1.7522,1.7555,1.7573,1.7507,1.7528,1.7608,1.757,1.7656,1.7664,1.7696,1.7713,1.7717,1.772,1.773,1.773,1.7899,1.79,0,0,1.7518,1.7522,1.7567,1.7579,1.7567,1.7567,1.7573,1.7661,1.768,1.7714,1.772,1.7722,1.773,1.7731,1.7899,1.79,0,0,0,1.7508,1.7519,1.7534,1.7574,1.7589,1.757,1.7576,1.7676,1.7681,1.7721,1.7723,1.7731,1.7732,1.7897,1.7899,1.795,0,0,0,1.7505,1.7513,1.7533,1.7536,1.7587,1.7633,1.7589,1.7674,1.7684,1.7723,1.7731,1.7734,1.7896,1.7898,1.7946,1.7973,0,0,0,1.7498,1.7512,1.7526,1.7536,1.7571,1.7632,1.7641,1.7676,1.7686,1.7729,1.7734,1.7896,1.7898,1.7943,1.7967,1.8017,0,0,0,1.7492,1.757,1.7527,1.7615,1.7571,1.7664,1.7641,1.771,1.7753,1.7732,1.7897,1.7899,1.7942,1.7964,1.8014,1.8059,1.8079,0,0,1.7593,1.7582,1.7634,1.7598,1.7699,1.7651,1.776,1.7795,1.7796,1.7865,1.7869,1.7947,1.7967,1.8017,1.8191,1.8206,0,0,0,1.7668,1.7705,1.7731,1.7773,1.7802,1.7829,1.7848,1.7862,1.792,1.7832,1.798,1.7991,1.802,1.8042,1.8055,1.8079,1.7909,1.7909,1.7909,1.7815,1.7812,1.7897,1.7904,1.7945,1.7964,1.7996,1.8017,1.8002,1.8037,1.8057,1.8163,1.8188,1.8198,1.8223,1.8082,1.8082,1.8082,1.8082,1.7962,1.8013,1.7992,1.8066,1.8062,1.8125,1.8147,1.8134,1.8191,1.8148,1.8173,1.8124,1.8215,1.8237,1.8086,1.8086,1.8085,1.8085,1.8084,1.8056,1.808,1.8096,1.8156,1.8202,1.8207,1.8263,1.8257,1.8253,1.8278,1.8298,1.8297,1.8294,1.8288,1.8289,1.8289,1.8289,1.829,1.829,1.8147,1.8163,1.8211,1.825,1.8276,1.8309,1.833,1.8355,1.8382,1.8373,1.8374,1.8354,1.8226,1.8192,1.8295,1.8294,1.8294,1.8293,1.8293,1.8293,1.8259,1.8333,1.836,1.8404,1.845,1.8444,1.8496,1.8516,1.8544,1.852,1.8427,1.8415,1.8404,1.8377,1.8521,1.8521,1.8521,1.8521,1.8371,1.8366,1.844,1.8482,1.8523,1.8525,1.8607,1.8625,1.8637,1.8649,1.8628,1.8591,1.8581,1.8576,1.8561,1.8535,1.8717,1.8717,1.8717,1.846,1.8458,1.853,1.8542,1.8577,1.8607,1.8684,1.8733,1.874,1.8725,1.8658,1.865,1.8591,1.8572,1.8553,1.8531,1.8483,0,0]}]]